Погода в Паутове

Россия / Алтайский край     52°12′55″N   84°15′52″E
темп.,
°C
ветер,
м/с
пор.,
м/с
влажн.,
%
обл.,
%
осадки,
мм/ч
давл.,
гПа
погр.,
м
7 мая, пт
пт701:00+18ю3445100 0.0 100444
04:00+17юз3847100 0.0 1005143
07:00+18юз41051100 0.0 1007231
10:00+18з4861100 0.0 1009544
13:00+16зсз6970100 0.1 1012741
16:00+13зюз6977100 0.9 1014459
19:00+15юз71065100 0.9 1015496
22:00+12юз487698 0.0 1018153
8 мая, сб
сб801:00+10юз348295 0.0 102062
04:00+9з227769 0.0 102115
07:00+9з11705 0.0 102224
10:00+15зсз12424 0.0 1021607
13:00+18зсз22300 0.0 10201315
16:00+20зсз33270 0.0 10191696
19:00+19ссз33330 0.0 10191049
22:00+14вюв11430 0.0 101910
9 мая, вс
вс901:00+12ююз22490 0.0 101911
04:00+10юз22550 0.0 101911
07:00+11юз22583 0.0 101926
10:00+18юз114116 0.0 1017413
13:00+21ссз223228 0.0 10161858
16:00+23ссз33296 0.0 10152330
19:00+21с453775 0.0 1014655
22:00+14св4105147 0.0 1016309
10 мая, пн
пн1001:00+10всв6135197 0.0 1016433
04:00+8всв512585 0.0 1015362
07:00+7всв5125795 0.0 1014446
10:00+11всв5848100 0.0 1013603
13:00+15всв5648100 0.0 1011945
16:00+15св575481 0.1 1009862
19:00+15всв5751100 0.1 1008758
22:00+12ссв375375 0.0 1008172
11 мая, вт
вт1101:00+10св2560100 0.0 1009116
04:00+10св1261100 0.1 100978
07:00+9ссв126887 0.4 1010123
10:00+13ссз225083 0.0 1011754
13:00+14зюз4353100 0.1 10111055
16:00+10юз5777100 0.6 1012211
19:00+10юз4778100 0.6 1013229
22:00+9зюз3586100 0.5 1014150